Hyannis, MA

2:42 AM EDT on March 27, 2017 (GMT -0400)
Barnstable Municipal-Boardman-Polando Field

Weather History for KHYA - September, 2012

Change the Weather History Date:

Monday, September 3, 2012

  Actual Average Record
Temperature  
Mean Temperature 62 °F -  
Max Temperature 73 °F 75 °F 86 °F (1930)
Min Temperature 54 °F 61 °F 44 °F (1958)
Degree Days  
Heating Degree Days 2    
Growing Degree Days 12 (Base 50)    
Moisture  
Dew Point 56 °F    
Average Humidity 78    
Maximum Humidity 100    
Minimum Humidity 53    
Precipitation  
Precipitation 0.00 in - - ()
Sea Level Pressure  
Sea Level Pressure 30.18 in    
Wind  
Wind Speed 3 mph (SE)    
Max Wind Speed 12 mph    
Max Gust Speed -    
Visibility 10 miles    
Events      
Averages and records for this station are not official NWS values.
T = Trace of Precipitation, MM = Missing Value Source: NWS Daily Summary

Daily Weather History Graph

Daily Weather History Graph

Search for Another Location

Airport or City:

Trip Planner

Search our weather history database for the weather conditions in past years. The results will help you decide how hot, cold, wet, or windy it might be!

Date:

Astronomy

Sep. 03, 2012 Rise Set
Actual Time 6:09 AM EDT 7:10 PM EDT
Civil Twilight 5:41 AM EDT 7:38 PM EDT
Nautical Twilight 5:07 AM EDT 8:12 PM EDT
Astronomical Twilight 4:31 AM EDT 8:47 PM EDT
Moon 8:23 PM EDT (9/3) 9:18 AM EDT (9/3)
Length of Visible Light 13h 57m
Length of Day
13h 00m
Waning Gibbous, 90% of the Moon is Illuminated
Sep 3
Waning Gibbous
Sep 8
Last Quarter
Sep 15
New
Sep 22
First Quarter
Sep 29
Full

Hourly Weather History & Observations

Time (EDT) Temp. Dew Point Humidity Pressure Visibility Wind Dir Wind Speed Gust Speed Precip Events Conditions
12:56 AM 57.0 °F 55.9 °F 96% 30.14 in 10.0 mi Calm Calm - N/A   Clear
1:56 AM 55.9 °F 54.0 °F 93% 30.13 in 8.0 mi Calm Calm - N/A   Clear
2:56 AM 57.9 °F 55.9 °F 93% 30.14 in 10.0 mi Calm Calm - N/A   Clear
3:56 AM 55.9 °F 55.9 °F 100% 30.14 in 10.0 mi Calm Calm - N/A   Clear
4:56 AM 54.0 °F 54.0 °F 100% 30.15 in 10.0 mi Calm Calm - N/A   Partly Cloudy
5:56 AM 55.0 °F 54.0 °F 96% 30.16 in 10.0 mi Calm Calm - N/A   Clear
6:13 AM 55.4 °F 53.6 °F 94% 30.16 in 1.5 mi Calm Calm - N/A   Clear
6:20 AM 55.4 °F 55.4 °F 100% 30.17 in 10.0 mi Calm Calm - N/A   Clear
6:56 AM 55.9 °F 55.0 °F 97% 30.18 in 10.0 mi Calm Calm - N/A   Clear
7:56 AM 64.9 °F 62.1 °F 90% 30.19 in 10.0 mi ENE 3.5 mph - N/A   Clear
8:56 AM 68.0 °F 62.1 °F 81% 30.20 in 10.0 mi Variable 4.6 mph - N/A   Partly Cloudy
9:56 AM 70.0 °F 60.1 °F 71% 30.22 in 10.0 mi SE 6.9 mph - N/A   Partly Cloudy
10:56 AM 71.1 °F 57.0 °F 61% 30.21 in 10.0 mi Variable 5.8 mph - N/A   Clear
11:56 AM 71.1 °F 54.0 °F 55% 30.21 in 10.0 mi ESE 6.9 mph - N/A   Clear
12:56 PM 71.1 °F 53.1 °F 53% 30.21 in 10.0 mi ESE 6.9 mph - N/A   Clear
1:56 PM 71.1 °F 57.0 °F 61% 30.20 in 10.0 mi SE 9.2 mph - N/A   Clear
2:56 PM 71.1 °F 53.1 °F 53% 30.19 in 10.0 mi ESE 9.2 mph - N/A   Clear
3:56 PM 70.0 °F 52.0 °F 53% 30.19 in 10.0 mi SSE 11.5 mph - N/A   Clear
4:56 PM 69.1 °F 53.1 °F 57% 30.19 in 10.0 mi SSE 9.2 mph - N/A   Clear
5:56 PM 66.9 °F 54.0 °F 63% 30.19 in 10.0 mi SSE 8.1 mph - N/A   Clear
6:56 PM 64.0 °F 54.0 °F 70% 30.18 in 10.0 mi SSE 8.1 mph - N/A   Clear
7:56 PM 62.1 °F 54.0 °F 75% 30.18 in 10.0 mi SSE 5.8 mph - N/A   Clear
8:56 PM 61.0 °F 53.1 °F 75% 30.18 in 10.0 mi SSE 5.8 mph - N/A   Clear
9:56 PM 60.1 °F 55.0 °F 83% 30.18 in 10.0 mi Calm Calm - N/A   Clear
10:56 PM 64.0 °F 57.9 °F 80% 30.17 in 10.0 mi ESE 4.6 mph - N/A   Clear
11:56 PM 63.0 °F 59.0 °F 87% 30.17 in 10.0 mi SE 4.6 mph - N/A   Clear